Location: Newark
(45.5000°N, 11.4167°E)
Time: 00:10:50
(UTC+00:00)

Transit 2A - All Passes

Search period start: 22 August 2019 00:00
Search period end: 01 September 2019 00:00
Orbit: 597 x 962 km, 66.7° (Epoch: 20 August)

Date Brightness Start Highest point End Pass type
(mag) Time Alt. Az. Time Alt. Az. Time Alt. Az.
22 Aug - 08:07:45 10° S 08:13:28 41° ESE 08:18:48 10° NE daylight
22 Aug - 09:51:02 10° WSW 09:56:43 41° NW 10:02:00 10° NNE daylight
22 Aug - 11:39:09 10° NW 11:41:23 12° NNW 11:43:35 10° N daylight
22 Aug - 15:11:18 10° N 15:13:14 12° NNE 15:15:07 10° NE daylight
22 Aug - 16:53:01 10° NNW 16:57:47 48° NE 17:02:09 10° SE daylight
22 Aug - 18:36:58 10° WNW 18:40:32 21° WSW 18:43:53 10° SSW visible
23 Aug - 07:34:15 10° S 07:39:28 30° ESE 07:44:24 10° NE daylight
23 Aug - 09:16:32 10° SW 09:22:30 54° NW 09:28:00 10° NNE daylight
23 Aug - 11:03:38 10° WNW 11:06:52 15° NNW 11:09:58 10° N daylight
23 Aug - 16:19:01 10° NNW 16:23:32 34° NE 16:27:41 10° ESE daylight
23 Aug - 18:02:25 10° NW 18:06:37 32° WSW 18:10:32 10° S daylight
24 Aug - 07:01:05 10° SSE 07:05:32 21° ESE 07:09:46 10° ENE daylight
24 Aug - 08:42:12 10° SW 08:48:19 73° NW 08:53:57 10° NNE daylight
24 Aug - 10:28:23 10° W 10:32:24 19° NW 10:36:13 10° N daylight
24 Aug - 15:45:05 10° NNW 15:49:13 26° NE 15:53:02 10° E daylight
24 Aug - 17:28:03 10° NW 17:32:39 48° WSW 17:36:54 10° S daylight
25 Aug - 06:28:26 10° SE 06:31:39 15° ESE 06:34:45 10° ENE daylight
25 Aug - 08:08:03 10° SSW 08:14:11 83° ESE 08:19:50 10° NE daylight
25 Aug - 09:53:21 10° W 09:58:00 23° NW 10:02:22 10° NNE daylight
25 Aug - 15:11:13 10° N 15:14:50 20° NE 15:18:13 10° E daylight
25 Aug - 16:53:49 10° NW 16:58:37 73° WSW 17:03:01 10° SSE daylight
26 Aug - 07:34:04 10° SSW 07:40:06 61° ESE 07:45:40 10° NE daylight
26 Aug - 09:18:29 10° WSW 09:23:39 30° NW 09:28:27 10° NNE daylight
26 Aug - 14:37:27 10° N 14:40:24 15° NNE 14:43:11 10° ENE daylight
26 Aug - 16:19:41 10° NNW 16:24:31 76° ENE 16:28:57 10° SE daylight
26 Aug - 18:04:53 10° WNW 18:06:52 13° WSW 18:08:48 10° SW daylight
27 Aug - 07:00:18 10° S 07:06:03 44° ESE 07:11:24 10° NE daylight
27 Aug - 08:43:47 10° WSW 08:49:22 38° NW 08:54:31 10° NNE daylight
27 Aug - 10:32:16 10° NW 10:34:05 11° NNW 10:35:51 10° N daylight
27 Aug - 14:03:51 10° N 14:05:53 12° NNE 14:07:52 10° NE daylight
27 Aug - 15:45:37 10° NNW 15:50:21 52° NE 15:54:42 10° SE daylight
27 Aug - 17:29:43 10° WNW 17:33:01 19° WSW 17:36:10 10° SSW daylight
28 Aug - 06:26:46 10° S 06:32:03 31° ESE 06:37:01 10° NE daylight
28 Aug - 08:09:15 10° SW 08:15:08 51° NW 08:20:31 10° NNE daylight
28 Aug - 09:56:37 10° WNW 09:59:33 14° NNW 10:02:21 10° N daylight
28 Aug - 15:11:37 10° NNW 15:16:07 37° NE 15:20:16 10° ESE daylight
28 Aug - 16:55:06 10° NW 16:59:08 29° WSW 17:02:55 10° S daylight
29 Aug - 05:53:31 10° SSE 05:58:06 23° ESE 06:02:27 10° ENE daylight
29 Aug - 07:34:53 10° SW 07:40:56 69° NW 07:46:29 10° NNE daylight
29 Aug - 09:21:18 10° WNW 09:25:04 17° NW 09:28:39 10° N daylight
29 Aug - 14:37:40 10° NNW 14:41:49 27° NE 14:45:40 10° ESE daylight
29 Aug - 16:20:42 10° NW 16:25:10 43° WSW 16:29:20 10° S daylight
30 Aug - 05:20:44 10° SE 05:24:12 16° ESE 05:27:32 10° ENE daylight
30 Aug - 07:00:42 10° SSW 07:06:47 88° SE 07:12:23 10° NNE daylight
30 Aug - 08:46:12 10° W 08:50:39 22° NW 08:54:50 10° N daylight
30 Aug - 14:03:47 10° N 14:07:27 21° NE 14:10:53 10° E daylight
30 Aug - 15:46:26 10° NW 15:51:09 67° WSW 15:55:30 10° SSE daylight
31 Aug - 04:49:19 10° ESE 04:50:21 10° ESE 04:51:21 10° E daylight
31 Aug - 06:26:41 10° SSW 06:32:42 65° ESE 06:38:14 10° NE daylight
31 Aug - 08:11:18 10° WSW 08:16:18 28° NW 08:20:57 10° NNE daylight
31 Aug - 13:30:01 10° N 13:33:01 16° NNE 13:35:53 10° ENE daylight
31 Aug - 15:12:17 10° NNW 15:17:04 82° ENE 15:21:28 10° SE daylight
31 Aug - 16:57:57 10° W 16:59:21 11° WSW 17:00:43 10° WSW daylight
